TimeCST,TemperatureF,Dew PointF,Humidity,Sea Level PressureIn,VisibilityMPH,Wind Direction,Wind SpeedMPH,Gust SpeedMPH,PrecipitationIn,Events,Conditions,WindDirDegrees,DateUTC
12:55 AM,36.0,30.0,79,29.79,10.0,SW,8.1,-,N/A,,Clear,220,2013-02-14 06:55:00
1:55 AM,35.1,28.9,78,29.79,10.0,WSW,6.9,-,N/A,,Clear,240,2013-02-14 07:55:00
2:55 AM,36.0,27.0,70,29.80,10.0,West,6.9,-,N/A,,Clear,260,2013-02-14 08:55:00
3:55 AM,36.0,26.1,67,29.80,10.0,WSW,6.9,-,N/A,,Clear,250,2013-02-14 09:55:00
4:55 AM,36.0,26.1,67,29.83,10.0,West,9.2,-,N/A,,Mostly Cloudy,260,2013-02-14 10:55:00
5:55 AM,34.0,26.1,73,29.84,10.0,West,8.1,-,N/A,,Clear,270,2013-02-14 11:55:00
6:55 AM,33.1,26.1,75,29.88,10.0,West,6.9,-,N/A,,Clear,260,2013-02-14 12:55:00
7:55 AM,35.1,28.0,76,29.91,10.0,West,13.8,-,N/A,,Clear,280,2013-02-14 13:55:00
8:55 AM,37.9,28.9,70,29.93,10.0,NW,16.1,24.2,N/A,,Clear,310,2013-02-14 14:55:00
9:55 AM,39.9,28.9,65,29.95,10.0,NW,13.8,21.9,N/A,,Partly Cloudy,310,2013-02-14 15:55:00
10:55 AM,43.0,28.9,58,29.96,10.0,NW,9.2,19.6,N/A,,Partly Cloudy,310,2013-02-14 16:55:00
11:55 AM,45.0,28.9,53,29.97,10.0,NW,11.5,17.3,N/A,,Partly Cloudy,310,2013-02-14 17:55:00
12:55 PM,46.9,28.0,48,29.96,10.0,NW,8.1,-,N/A,,Clear,310,2013-02-14 18:55:00
1:55 PM,46.9,28.0,48,29.98,10.0,WNW,15.0,-,N/A,,Mostly Cloudy,290,2013-02-14 19:55:00
2:55 PM,46.9,27.0,46,29.99,10.0,WNW,11.5,21.9,N/A,,Mostly Cloudy,300,2013-02-14 20:55:00
3:55 PM,46.0,26.1,46,30.01,10.0,WNW,17.3,24.2,N/A,,Mostly Cloudy,300,2013-02-14 21:55:00
4:55 PM,43.0,25.0,49,30.03,10.0,WNW,12.7,21.9,N/A,,Partly Cloudy,290,2013-02-14 22:55:00
5:55 PM,42.1,27.0,55,30.05,10.0,WNW,12.7,23.0,N/A,,Mostly Cloudy,300,2013-02-14 23:55:00
6:55 PM,39.9,24.1,53,30.08,10.0,WNW,10.4,-,N/A,,Mostly Cloudy,300,2013-02-15 00:55:00
7:55 PM,37.9,25.0,60,30.08,10.0,WNW,5.8,-,N/A,,Partly Cloudy,290,2013-02-15 01:55:00
8:55 PM,36.0,24.1,62,30.10,10.0,WNW,8.1,-,N/A,,Partly Cloudy,300,2013-02-15 02:55:00
9:55 PM,35.1,24.1,64,30.11,10.0,NW,11.5,-,N/A,,Clear,320,2013-02-15 03:55:00
10:55 PM,32.0,25.0,75,30.12,10.0,NNW,6.9,-,N/A,,Partly Cloudy,340,2013-02-15 04:55:00
11:19 PM,32.0,24.8,75,30.10,10.0,NNW,8.1,18.4,N/A,,Mostly Cloudy,330,2013-02-15 05:19:00
11:28 PM,30.2,24.8,80,30.11,10.0,NNW,8.1,-,N/A,,Scattered Clouds,340,2013-02-15 05:28:00
11:55 PM,30.0,23.0,75,30.15,10.0,NNW,6.9,-,N/A,,Clear,330,2013-02-15 05:55:00